sat.trackr.live / text

‹ back to catalog

STARLINK-36439

NORAD 67624 · 2026-020H

PAYLOAD ACTIVE UNKNOWN

§ Identity

Operator
Country
US
Launch date
2026-01-30
Launch site
AFETR
Launch vehicle
Mass (kg)
RCS (m²)

Purposes: comms

External: N2YO · Heavens-Above · Gunter

§ Orbital elements

Epoch: 2026-05-25T04:30:32.861376Z

Period
94.27 min
Inclination
43.0027°
Eccentricity
0.0001192
Mean motion
15.27593142 rev/d
Perigee alt
482.2 km
Apogee alt
483.8 km
Semi-major
6,861.1 km
B*
6.2516e-4
RAAN
67.7087°
Arg perigee
267.5098°
Mean anomaly
92.5617°
Rev number
1,781

§ Raw data

STARLINK-364391 67624U 26020H   26145.18788034  .00016987  00000+0  62516-3 0  99952 67624  43.0027  67.7087 0001192 267.5098  92.5617 15.27593142 17814

JSON: /api/v1/satellites/67624 · /tle

For live sub-satellite position, see the globe view (requires WebGL).

§ Visibility from observer

Set your observer location to see the next 7 days of passes ≥ 10°. The values pass through the URL so the page stays shareable.

No JS? Fill the form by hand. The geolocation button needs JavaScript.